Regional Weather Roundup
Issued by NWS

Home | Current Version | Previous Version | Graphics & Text | Print | Product List | Glossary Off
Versions: 1 2 3 4 5 6 7 8 9 10 11 12 13 14 15 16 17 18 19 20 21 22 23 24 25 26 27 28 29 30 31 32 33 34 35 36 37 38 39 40 41 42 43 44 45 46 47 48 49 50

000
ASUS43 KDTX 041501
RWRMI
MICHIGAN HOURLY REGIONAL WEATHER ROUNDUP
NATIONAL WEATHER SERVICE DETROIT/PONTIAC MI
1100 AM EDT MON MAY 04 2015

NOTE: "FAIR" INDICATES FEW OR NO CLOUDS BELOW 12,000 FEET WITH NO
SIGNIFICANT WEATHER AND/OR OBSTRUCTION TO VISIBILITY.

MIZ047>049-052>055-059>063-066>070-074>076-081>083-041600-
SOUTHEAST LOWER MICHIGAN

CITY           SKY/WX    TMP DP  RH WIND       PRES   REMARKS
ADRIAN         LGT RAIN  62  55  77 W12G29    30.08R
ALMA           CLOUDY    65  56  73 W13G18    29.99R
ANN ARBOR      LGT RAIN  63  55  75 SW12      30.05R
BAD AXE        CLOUDY    62  56  82 S7        29.99S
CARO           CLOUDY    64  59  85 SW6       29.98R
DETROIT CITY   PTSUNNY   69  50  50 SW14G24   30.03R
DETROIT        RAIN      67  54  63 SW21G26   30.05R
FLINT          CLOUDY    67  53  61 SW13G21   29.99R
GROSSE ILE     PTSUNNY   68  54  60 S16       30.02R
HILLSDALE      CLOUDY    64  57  78 SW10      30.07S
HOWELL         CLOUDY    67  54  63 SW13G18   30.01R

CITY           SKY/WX    TMP DP  RH WIND       PRES   REMARKS
JACKSON        PTSUNNY   66  55  67 SW23G33   30.04R
LAMBERTVILLE   PTSUNNY   73  50  43 W14G25    30.07R
LANSING        PTSUNNY   69  53  56 SW17G29   30.01R
LAPEER         CLOUDY    64  53  69 SW3       30.00R
MASON          PTSUNNY   67  52  57 SW14G22   30.02R
MONROE         PTSUNNY   72  52  49 W16G22    30.04R
PONTIAC        CLOUDY    62  54  74 S9        30.02R
PORT HOPE        N/A     62  56  80 VRB3      29.96S
PORT HURON     CLOUDY    68  52  56 S12       29.99S
TRI CITIES     CLOUDY    66  55  67 SW13      29.98R
MIDLAND        CLOUDY    64  55  71 W7        29.98R
TROY           LGT RAIN  64  55  71 SW10G16   30.04R
SAGINAW HB     CLOUDY    63  55  77 SW10      29.97R
$$
MIZ043>046-050>051-056>058-064>065-071>073-077>080-041600-
SOUTHWEST LOWER MICHIGAN

CITY           SKY/WX    TMP DP  RH WIND       PRES   REMARKS
BATTLE CREEK   PTSUNNY   69  54  58 SW18G28   30.05R
BENTON HARBOR  CLOUDY    63  56  78 SW13      30.07R
BIG RAPIDS     PTSUNNY   63  55  74 NW12G20   30.01R
COLDWATER      CLOUDY    64  55  72 SW14G22   30.08R
FREMONT        FAIR      62  54  73 NW12      30.02R
HOLLAND        CLOUDY    58  52  80 W8        30.07R
GRAND RAPIDS   PTSUNNY   66  55  67 W16       30.03R
IONIA          FAIR      69  55  60 W21G29    30.01R
KALAMAZOO      PTSUNNY   71  55  56 SW14      30.05S
LUDINGTON      CLOUDY    62  56  80 NW10      30.03R
MARSHALL       PTSUNNY   66  53  63 W15       30.05R
MOUNT PLEASANT PTSUNNY   64  56  78 W7        29.98R
MUSKEGON       CLOUDY    63  54  72 W6        30.03R
SOUTH HAVEN    CLOUDY    60  51  73 W6        30.07R
$$
MIZ016>042-041600-
NORTHERN LOWER MICHIGAN

CITY           SKY/WX    TMP DP  RH WIND       PRES   REMARKS
ALPENA         LGT RAIN  59  56  89 SW3       29.98R
BEAVER ISLAND  PTSUNNY   54  44  67 W8        30.02R
BELLAIRE       CLOUDY    56  52  86 CALM      30.02R
CADILLAC       CLOUDY    60  55  85 NW10      30.01R
CHARLEVOIX     CLOUDY    51  45  78 W10       30.05R
FRANKFORT      PTSUNNY   60  49  65 NE3       30.03R
GAYLORD        CLOUDY    56  56 100 W6        30.00R
GRAYLING       CLOUDY    58  56  92 W10       30.01R
HARBOR SPRINGS FOG       44  44  99 SW6       30.00R VSB<1/4
MANISTEE       CLOUDY    57  52  82 N8        30.04R
OSCODA         CLOUDY    62  60  91 W5        29.97R
PELLSTON       PTSUNNY   63  45  51 NW18      29.99R
ROGERS CITY    CLOUDY    58  56  92 W9        29.98R
TRAVERSE CITY  CLOUDY    59  53  80 NW6       30.00R
$$
MIZ007>008-015-041600-
EASTERN UPPER MICHIGAN

CITY           SKY/WX    TMP DP  RH WIND       PRES   REMARKS
KINROSS        CLOUDY    55  48  76 NW13      29.97R
MACKINAC ISLAN CLOUDY    51  48  90 W10       29.98R
NEWBERRY       CLOUDY    55  45  68 NW10      30.00R
S. S. MARIE    CLOUDY    51  41  68 W10       29.97R
MUNISING         N/A     48  36  63 N9        30.09R
$$
MIZ004>006-011>014-085-041600-
CENTRAL UPPER MICHIGAN

CITY           SKY/WX    TMP DP  RH WIND       PRES   REMARKS
MANISTIQUE     CLOUDY    54  44  67 NW10G16   30.03R
ESCANABA       MOSUNNY   61  41  48 N13       30.05R
MENOMINEE      MOSUNNY   63  43  48 N12G17    30.05R
SAWYER-GWINN   SUNNY     57  39  51 N16G23    30.07R
$$
MIZ001>003-009>011-084-041600-
WESTERN UPPER MICHIGAN

CITY           SKY/WX    TMP DP  RH WIND       PRES   REMARKS
IRON MOUNTAIN  SUNNY     60  40  47 NW12      30.06R
HOUGHTON       SUNNY     54  38  54 NW18G25   30.11R
COPPER HARBOR    N/A     49  38  65 N15       30.10R
IRONWOOD       SUNNY     54  37  54 N12       30.12R
$$

ABBREVIATIONS USED IN REMARKS
   TC - TEMPERATURE IN CELSIUS
  WCI - WIND CHILL INDEX
   HX - HEAT INDEX
  VSB - VISIBILITY




USA.gov is the U.S. government's official web portal to all federal, state and local government web resources and services.